[[{"header":{"parameterUnit":"m.s-1","parameterCategory":1,"la1":30.2991,"la2":30.254,"lo1":-89.0895,"lo2":-89.0444,"dy":0.0017,"dx":0.0017,"nx":28,"ny":28,"refTime":"2025-11-08T03:00:00:Z","depth":0,"parameterNumber":2,"parameterNumberName":"U-component_of_WINDS"},"data":[0,0,0,0,0,0,0,0,0,0,0,0,0,0,0,0,0,0,0,0,0,0,0,0,0,0,0,0,0,0,0,0,0,0,0,0,0,0,0,0,0,0,0,0,0,0,0,0,0,0,0,0,0,0,0,0,0,0,-0.9777,-0.9776,0,-0.9675,-0.9674,-0.9673,-0.961,-0.961,-0.961,-0.9609,-0.9502,-0.95,-0.9497,0,0,0,0,0,0,0,0,0,0,0,0,0,-0.9915,-0.9913,-0.9777,-0.9776,-0.9775,-0.9676,-0.9674,-0.9673,-0.961,-0.961,-0.961,-0.9609,-0.9503,-0.95,-0.9497,0,0,0,0,0,0,0,0,0,0,0,0,0,-0.9838,-0.9912,-0.9778,-0.9732,-0.9727,-0.9676,-0.9674,-0.9672,-0.961,-0.961,-0.9609,-0.9609,-0.9504,-0.95,-0.9497,-0.9483,0,0,-0.9485,-0.9483,0,0,0,0,0,0,0,0,-0.9843,-0.9833,-0.974,-0.9735,-0.9729,-0.9655,-0.9683,-0.9609,-0.9611,-0.9654,-0.9609,-0.9609,-0.9553,-0.9545,-0.9527,-0.9478,-0.9473,-0.9485,-0.9482,-0.9481,-0.948,0,0,0,0,0,0,0,-0.9848,-0.9837,-0.9737,-0.9738,-0.9732,-0.9715,-0.9704,-0.9669,-0.9608,-0.9651,-0.9646,-0.9635,-0.955,-0.9531,-0.9524,-0.9472,-0.9485,-0.9481,-0.9479,-0.9478,-0.9403,-0.9404,0,0,0,0,0,0,-0.9861,-0.9842,-0.974,-0.9734,-0.9786,-0.9713,-0.97,-0.9679,-0.9608,-0.9597,-0.9635,-0.9632,-0.9538,-0.9529,-0.952,-0.9498,-0.9481,-0.9477,-0.9475,-0.9403,-0.9403,-0.9404,0,0,0,0,0,0,-0.9864,-0.9852,-0.9744,-0.9787,-0.9772,-0.9711,-0.9688,-0.9678,-0.9658,-0.9596,-0.9585,-0.9627,-0.9537,-0.9526,-0.9492,-0.9493,-0.9475,-0.9472,-0.9403,-0.9403,-0.9404,-0.9454,0,0,0,0,0,0,-0.9868,-0.9854,-0.9849,-0.9787,-0.977,-0.9719,-0.9688,-0.9676,-0.9652,-0.9647,-0.9586,-0.9575,-0.9536,-0.9498,-0.9489,-0.9488,-0.9469,-0.9402,-0.9403,-0.9403,-0.9452,-0.9456,-0.946,0,0,0,0,0,-0.9874,-0.9867,-0.9849,-0.9837,-0.9762,-0.9719,-0.9709,-0.9665,-0.9653,-0.9646,-0.9606,-0.9577,-0.9495,-0.9496,-0.9484,-0.9482,-0.9402,-0.9403,-0.9403,-0.945,-0.9455,-0.946,0,0,0,0,0,0,-0.993,-0.9858,-0.9837,-0.9811,-0.9772,-0.9709,-0.9699,-0.9672,-0.9635,-0.9632,-0.9578,-0.9565,-0.9536,-0.9506,-0.9507,-0.9464,-0.9445,-0.9444,-0.9485,-0.9489,-0.9493,-0.95,-0.9466,0,0,0,0,0,-0.9939,-0.9911,-0.985,-0.9832,-0.9814,-0.976,-0.974,-0.9709,-0.9666,-0.9649,-0.9607,-0.9566,-0.953,-0.9508,-0.9472,-0.9448,-0.9432,-0.944,-0.9444,-0.9448,-0.9447,-0.943,-0.9432,-0.9406,-0.9406,-0.9406,0,0,-0.9958,-0.9915,-0.9901,-0.9842,-0.9809,-0.978,-0.9747,-0.9718,-0.9696,-0.9645,-0.961,-0.9578,-0.9528,-0.9498,-0.9483,-0.9472,-0.9451,-0.9449,-0.9452,-0.9449,-0.9431,-0.9433,-0.9435,-0.9407,-0.9407,-0.9406,0,0,-0.9977,-0.9943,-0.9924,-0.9891,-0.984,-0.9805,-0.98,-0.9741,-0.9718,-0.9683,-0.9644,-0.9616,-0.9557,-0.9522,-0.9497,-0.9503,-0.9474,-0.9493,-0.9513,-0.9497,-0.9499,-0.95,-0.9501,-0.9502,-0.9492,-0.9492,-0.9493,0,-1.0007,-0.9963,-0.9918,-0.9891,-0.9865,-0.9819,-0.9798,-0.9768,-0.9708,-0.9691,-0.968,-0.9604,-0.9567,-0.9528,-0.953,-0.9511,-0.9503,-0.9499,-0.9503,-0.9504,-0.9504,-0.9504,-0.9505,-0.9495,-0.9495,-0.9494,-0.9494,0,-1.0001,-0.9971,-0.9962,-0.9905,-0.9879,-0.9856,-0.9805,-0.9784,-0.9756,-0.9721,-0.9685,-0.9639,-0.9593,-0.9582,-0.9554,-0.9538,-0.9533,-0.9513,-0.9493,-0.951,-0.9509,-0.9509,-0.9499,-0.9498,-0.9497,-0.9496,0,0,-1.0053,-0.9971,-0.9969,-0.9942,-0.9883,-0.9858,-0.9832,-0.9787,-0.9769,-0.9729,-0.9705,-0.9656,-0.9637,-0.9608,-0.9576,-0.9562,-0.9568,-0.9543,-0.9541,-0.9548,-0.9546,-0.9561,-0.9561,-0.9549,-0.9549,-0.9548,-0.955,0,-1.0062,-1.0014,-0.9972,-0.9938,-0.9909,-0.9864,-0.9841,-0.9801,-0.9768,-0.9738,-0.9701,-0.9666,-0.9644,-0.9626,-0.9611,-0.9571,-0.9566,-0.957,-0.9524,-0.9523,-0.9537,-0.9561,-0.9576,-0.958,-0.9549,-0.9549,-0.9549,0,-1.0067,-1.0029,-0.9993,-0.9935,-0.9922,-0.9902,-0.9857,-0.9829,-0.9783,-0.9759,-0.9727,-0.9693,-0.9662,-0.9646,-0.9602,-0.9605,-0.9584,-0.9561,-0.956,-0.9553,-0.9536,-0.9553,-0.958,-0.958,-0.9548,-0.9548,-0.9548,0,-1.0106,-1.0046,-1.0017,-0.9995,-0.9928,-0.9915,-0.9886,-0.9839,-0.9815,-0.9775,-0.9759,-0.9716,-0.9692,-0.9659,-0.9614,-0.9607,-0.9574,-0.9554,-0.9552,-0.9553,-0.9546,-0.9547,-0.9568,-0.9535,-0.9535,-0.9535,-0.9535,0,-1.012,-1.0099,-1.0033,-1.0015,-0.999,-0.9941,-0.9918,-0.9885,-0.9843,-0.9817,-0.9775,-0.9751,-0.9694,-0.9662,-0.9627,-0.9594,-0.9584,-0.9563,-0.9554,-0.9566,-0.9569,-0.955,-0.9548,-0.9535,-0.9535,-0.9535,-0.9535,0,-1.0159,-1.0115,-1.0079,-1.0018,-1.0002,-0.9986,-0.9934,-0.9913,-0.9878,-0.9845,-0.9834,-0.9778,-0.9739,-0.9691,-0.9636,-0.9612,-0.9582,-0.9569,-0.9598,-0.9592,-0.9592,-0.9592,-0.9602,-0.96,-0.957,-0.957,-0.957,0,-1.0171,-1.0154,-1.0091,-1.0071,-1.0043,-1.0011,-0.9986,-0.9937,-0.9913,-0.9858,-0.9844,-0.9802,-0.9765,-0.9704,-0.9658,-0.9615,-0.9599,-0.9605,-0.9592,-0.9605,-0.9597,-0.9598,-0.9596,-0.9608,-0.9609,-0.961,-0.961,0,-1.0195,-1.0174,-1.014,-1.0097,-1.0069,-1.0033,-0.9995,-0.998,-0.9924,-0.9898,-0.9857,-0.9829,-0.9773,-0.9731,-0.9682,-0.9651,-0.962,-0.9615,-0.9611,-0.9623,-0.964,-0.9629,-0.9606,-0.9614,-0.9614,-0.9614,-0.9613,-0.9613,-1.022,-1.0202,-1.0155,-1.0118,-1.0085,-1.005,-1.0028,-0.999,-0.9956,-0.9907,-0.988,-0.984,-0.9792,-0.9724,-0.9694,-0.9661,-0.965,-0.9646,-0.9645,-0.9644,-0.9647,-0.9647,-0.9652,-0.9652,-0.9652,-0.9651,-0.9651,0,-1.0241,-1.0208,-1.0175,-1.0123,-1.0094,-1.0069,-1.0026,-1.0002,-0.9968,-0.9927,-0.9892,-0.9845,-0.9803,-0.9754,-0.9709,-0.9692,-0.9677,-0.9682,-0.9682,-0.9675,-0.966,-0.9667,-0.9695,-0.9695,-0.9695,-0.9695,-0.9695,-0.9695,-1.0248,-1.0216,-1.0189,-1.014,-1.0107,-1.0068,-1.0046,-1.0013,-0.998,-0.993,-0.9895,-0.9864,-0.9819,-0.977,-0.9731,-0.9717,-0.9702,-0.971,-0.9693,-0.968,-0.9676,-0.9672,-0.9678,-0.9708,-0.9708,-0.9709,-0.9709,-0.9709]},{"header":{"parameterUnit":"m.s-1","parameterCategory":1,"la1":30.2991,"la2":30.254,"lo1":-89.0895,"lo2":-89.0444,"dy":0.0017,"dx":0.0017,"nx":28,"ny":28,"refTime":"2025-11-08T03:00:00:Z","depth":0,"parameterNumber":3,"parameterNumberName":"V-component_of_WINDS"},"data":[0,0,0,0,0,0,0,0,0,0,0,0,0,0,0,0,0,0,0,0,0,0,0,0,0,0,0,0,0,0,0,0,0,0,0,0,0,0,0,0,0,0,0,0,0,0,0,0,0,0,0,0,0,0,0,0,0,0,3.1323,3.1323,0,3.1314,3.1314,3.1314,3.1274,3.1273,3.1272,3.1271,3.1258,3.1259,3.1259,0,0,0,0,0,0,0,0,0,0,0,0,0,3.1303,3.1304,3.1323,3.1323,3.1322,3.1314,3.1314,3.1314,3.1274,3.1273,3.1272,3.1271,3.1258,3.1259,3.1259,0,0,0,0,0,0,0,0,0,0,0,0,0,3.1305,3.1304,3.1323,3.1302,3.13,3.1314,3.1314,3.1314,3.1274,3.1273,3.1272,3.127,3.1258,3.1259,3.1259,3.1292,0,0,3.1262,3.1262,0,0,0,0,0,0,0,0,3.1305,3.1305,3.1305,3.1303,3.1301,3.1294,3.1302,3.1306,3.1275,3.1284,3.1271,3.127,3.1271,3.127,3.1272,3.1291,3.1291,3.1262,3.1262,3.1263,3.1263,0,0,0,0,0,0,0,3.1304,3.1305,3.1319,3.1305,3.1303,3.1292,3.1291,3.1303,3.1285,3.1283,3.128,3.128,3.1269,3.1271,3.1271,3.129,3.1262,3.1262,3.1263,3.1263,3.1339,3.134,0,0,0,0,0,0,3.1308,3.1306,3.1319,3.1319,3.13,3.1294,3.1292,3.1297,3.1285,3.1282,3.1281,3.1278,3.127,3.127,3.1271,3.131,3.1263,3.1263,3.1264,3.1337,3.1339,3.1341,0,0,0,0,0,0,3.1307,3.1309,3.132,3.1312,3.1312,3.1296,3.1302,3.1298,3.13,3.1283,3.128,3.1286,3.1269,3.1269,3.1288,3.1309,3.1264,3.1264,3.1336,3.1338,3.134,3.1387,0,0,0,0,0,0,3.1307,3.1309,3.1322,3.1312,3.1313,3.1338,3.1303,3.1299,3.1301,3.1297,3.1287,3.1284,3.1268,3.1287,3.1289,3.1309,3.1265,3.1334,3.1337,3.1339,3.1384,3.1391,3.1397,0,0,0,0,0,3.1306,3.1334,3.1323,3.1325,3.1328,3.1339,3.1339,3.1322,3.1303,3.1316,3.1306,3.1284,3.1306,3.1289,3.1291,3.1312,3.1332,3.1336,3.1339,3.1381,3.139,3.1397,0,0,0,0,0,0,3.1344,3.1332,3.1319,3.1345,3.1344,3.1332,3.1347,3.1331,3.1334,3.1329,3.1306,3.1304,3.1327,3.132,3.1302,3.1344,3.1316,3.132,3.1347,3.1355,3.1362,3.1363,3.1266,0,0,0,0,0,3.1356,3.1367,3.1355,3.1378,3.1379,3.1363,3.1367,3.1354,3.1351,3.135,3.1341,3.1339,3.1345,3.135,3.1354,3.1383,3.1381,3.1398,3.1405,3.141,3.1414,3.1432,3.144,3.1352,3.1352,3.1352,0,0,3.1379,3.1374,3.1382,3.1386,3.1383,3.1395,3.1363,3.1376,3.1384,3.1351,3.137,3.1363,3.1359,3.1383,3.1393,3.1379,3.1438,3.1415,3.1419,3.142,3.1436,3.1444,3.1452,3.1355,3.1354,3.1354,0,0,3.1428,3.1425,3.1445,3.1444,3.1442,3.1432,3.1437,3.1429,3.1425,3.1443,3.1419,3.1428,3.1439,3.1438,3.1439,3.1491,3.1472,3.1493,3.1528,3.1545,3.1552,3.1558,3.1578,3.1586,3.1497,3.1497,3.1497,0,3.1457,3.1475,3.1457,3.1473,3.1477,3.145,3.1471,3.147,3.1469,3.1472,3.1456,3.1471,3.1466,3.1491,3.1505,3.1505,3.1511,3.1494,3.1552,3.1558,3.1564,3.1583,3.1591,3.1499,3.1499,3.1499,3.1499,0,3.1511,3.1524,3.1541,3.1544,3.1548,3.1567,3.1552,3.1559,3.1547,3.1538,3.1558,3.1551,3.1556,3.1561,3.1547,3.1585,3.1576,3.1557,3.1528,3.1575,3.1593,3.16,3.1503,3.1502,3.1502,3.1501,0,0,3.1582,3.1577,3.1584,3.1586,3.1583,3.1592,3.161,3.1616,3.1624,3.1624,3.1639,3.1651,3.1634,3.1635,3.1621,3.1636,3.1681,3.1615,3.1614,3.1629,3.1724,3.174,3.1749,3.1668,3.1669,3.167,3.1725,0,3.163,3.1662,3.1648,3.1681,3.1694,3.167,3.1686,3.1685,3.1679,3.1688,3.168,3.169,3.1666,3.1667,3.168,3.1672,3.17,3.1668,3.1682,3.1683,3.1686,3.1758,3.1774,3.1826,3.1732,3.1733,3.1734,0,3.169,3.1697,3.1732,3.173,3.1734,3.1749,3.1755,3.1764,3.1764,3.1759,3.1762,3.1745,3.1763,3.1735,3.1759,3.1738,3.1743,3.174,3.1742,3.1743,3.1712,3.1763,3.1842,3.185,3.1744,3.1743,3.1743,0,3.1741,3.1758,3.1782,3.1784,3.1781,3.1793,3.1792,3.1791,3.1796,3.1802,3.1805,3.1812,3.1815,3.1821,3.1807,3.1787,3.1834,3.1804,3.183,3.1831,3.1841,3.1841,3.1924,3.1842,3.1842,3.1842,3.1842,0,3.1797,3.182,3.1805,3.182,3.1845,3.183,3.1855,3.1851,3.1851,3.1865,3.1843,3.1856,3.1837,3.1848,3.1837,3.186,3.1861,3.1858,3.1855,3.186,3.1861,3.1864,3.1861,3.1844,3.1844,3.1843,3.1843,0,3.1858,3.1849,3.1874,3.1871,3.1871,3.189,3.1887,3.19,3.1893,3.1911,3.1914,3.1903,3.1916,3.1903,3.1913,3.1906,3.1938,3.1928,3.1939,3.1937,3.1965,3.1963,3.2053,3.2065,3.1975,3.1976,3.1976,0,3.1894,3.1912,3.1912,3.1921,3.1923,3.1936,3.1943,3.1929,3.1937,3.194,3.1954,3.1965,3.1973,3.1995,3.1987,3.1996,3.1987,3.2019,3.1988,3.1995,3.199,3.199,3.1993,3.2025,3.2026,3.2027,3.2028,0,3.1962,3.1958,3.1969,3.198,3.199,3.1997,3.2003,3.2011,3.1996,3.2006,3.202,3.2027,3.204,3.2052,3.2059,3.2058,3.2041,3.2037,3.2044,3.2051,3.2057,3.2056,3.1957,3.2035,3.2034,3.2034,3.2034,3.2033,3.2013,3.2029,3.2032,3.2047,3.205,3.2057,3.2071,3.2067,3.2079,3.209,3.2081,3.2098,3.21,3.2108,3.2109,3.2122,3.2109,3.2118,3.2121,3.2124,3.213,3.2054,3.2123,3.2123,3.2123,3.2122,3.2122,0,3.2081,3.2083,3.2096,3.2107,3.2119,3.2104,3.211,3.2121,3.2137,3.2141,3.2151,3.2168,3.2181,3.2175,3.2186,3.2198,3.2191,3.2202,3.2201,3.2202,3.2139,3.2134,3.2208,3.2208,3.2208,3.2208,3.2208,3.2208,3.2117,3.2144,3.2141,3.217,3.2172,3.2191,3.2196,3.2202,3.2206,3.2227,3.2238,3.2236,3.2236,3.2247,3.2258,3.2257,3.2262,3.2276,3.2272,3.2214,3.2206,3.2198,3.2192,3.2277,3.2277,3.2333,3.2334,3.2334]}]]